Location: Navalespino
(40.5894°N, 4.2660°W)
Time: 19:54:56
(UTC+00:00)

USA 229 DEB - Pass Details

Date: 18 April 2024
Orbit: 892 x 1319 km, 63.4° (Epoch: 15 May)

Event Time Altitude Azimuth Distance (km) Brightness Sun altitude
Rises 19:49:53 0° 178° (S) 3,502 6.2 -9.8°
Reaches altitude 10° 19:52:41 10° 166° (SSE) 2,591 5.4 -10.2°
Maximum altitude 19:57:38 27° 110° (ESE) 1,722 4.2 -11.1°
Drops below altitude 10° 20:02:53 10° 55° (NE) 2,773 5.6 -12.0°
Sets 20:05:58 0° 44° (NE) 3,797 6.4 -12.5°
